TimeEDT,TemperatureF,Dew PointF,Humidity,Sea Level PressureIn,VisibilityMPH,Wind Direction,Wind SpeedMPH,Gust SpeedMPH,PrecipitationIn,Events,Conditions,WindDirDegrees,DateUTC
12:15 AM,65.7,60.8,84,30.00,10.0,Calm,Calm,-,N/A,Rain,Light Rain,0,2013-07-26 04:15:00
12:35 AM,63.9,60.6,89,30.00,10.0,Calm,Calm,-,N/A,Rain,Rain,0,2013-07-26 04:35:00
12:55 AM,63.5,60.6,90,30.00,10.0,Calm,Calm,-,N/A,Rain,Rain,0,2013-07-26 04:55:00
1:15 AM,63.3,58.6,85,30.00,10.0,Calm,Calm,-,N/A,Rain,Light Rain,0,2013-07-26 05:15:00
1:35 AM,62.6,56.5,80,30.02,5.0,SW,10.4,18.4,N/A,Rain,Heavy Rain,220,2013-07-26 05:35:00
1:54 AM,60.1,56.8,89,30.03,2.5,West,6.9,-,N/A,Rain,Heavy Rain,270,2013-07-26 05:54:00
2:15 AM,59.9,55.6,86,30.02,2.0,SSE,3.5,17.3,N/A,Rain,Heavy Rain,160,2013-07-26 06:15:00
2:35 AM,58.1,55.6,91,30.01,5.0,NNE,3.5,-,N/A,Rain,Light Rain,20,2013-07-26 06:35:00
2:54 AM,58.1,55.8,92,30.00,10.0,ESE,3.5,-,N/A,,Overcast,110,2013-07-26 06:54:00
3:15 AM,57.7,55.8,93,29.99,10.0,East,3.5,-,N/A,,Overcast,90,2013-07-26 07:15:00
3:35 AM,58.3,55.9,92,29.98,10.0,East,5.8,-,N/A,,Overcast,80,2013-07-26 07:35:00
3:55 AM,59.9,57.6,92,29.97,10.0,NNE,3.5,-,N/A,,Overcast,30,2013-07-26 07:55:00
4:15 AM,59.9,57.7,93,29.97,10.0,NE,4.6,-,N/A,,Mostly Cloudy,40,2013-07-26 08:15:00
4:34 AM,59.9,57.2,91,29.97,10.0,Calm,Calm,-,N/A,,Overcast,0,2013-07-26 08:34:00
4:55 AM,59.9,55.9,87,29.96,10.0,NE,3.5,-,N/A,,Mostly Cloudy,50,2013-07-26 08:55:00
5:15 AM,59.9,55.2,84,29.96,10.0,Calm,Calm,-,N/A,,Clear,0,2013-07-26 09:15:00
5:34 AM,59.9,55.4,85,29.96,10.0,South,6.9,-,N/A,,Scattered Clouds,170,2013-07-26 09:34:00
5:55 AM,59.9,54.9,83,29.96,10.0,West,4.6,-,N/A,,Scattered Clouds,280,2013-07-26 09:55:00
6:15 AM,59.9,55.9,87,29.96,10.0,SE,3.5,-,N/A,,Clear,130,2013-07-26 10:15:00
6:34 AM,59.9,55.8,86,29.96,10.0,Calm,Calm,-,N/A,,Scattered Clouds,0,2013-07-26 10:34:00
6:55 AM,59.9,55.4,85,29.96,10.0,WNW,3.5,-,N/A,,Scattered Clouds,290,2013-07-26 10:55:00
7:15 AM,60.1,54.7,82,29.96,10.0,SSW,3.5,-,N/A,,Scattered Clouds,200,2013-07-26 11:15:00
7:35 AM,60.3,54.5,81,29.96,10.0,SSW,3.5,-,N/A,,Scattered Clouds,200,2013-07-26 11:35:00
7:55 AM,61.3,55.0,80,29.96,10.0,Calm,Calm,-,N/A,,Clear,0,2013-07-26 11:55:00
8:15 AM,62.6,55.9,79,29.96,10.0,South,4.6,-,N/A,,Clear,190,2013-07-26 12:15:00
8:35 AM,63.5,56.7,78,29.96,10.0,Calm,Calm,-,N/A,,Clear,0,2013-07-26 12:35:00
8:55 AM,63.0,56.7,80,29.95,10.0,SW,3.5,-,N/A,,Clear,220,2013-07-26 12:55:00
9:15 AM,64.6,58.1,79,29.95,10.0,Calm,Calm,-,N/A,,Scattered Clouds,0,2013-07-26 13:15:00
9:35 AM,65.8,59.0,79,29.95,10.0,SSW,4.6,-,N/A,,Scattered Clouds,200,2013-07-26 13:35:00
9:55 AM,70.0,61.0,73,29.95,10.0,Calm,Calm,-,N/A,,Clear,0,2013-07-26 13:55:00
10:15 AM,70.0,60.6,72,29.95,10.0,SSW,3.5,-,N/A,,Scattered Clouds,200,2013-07-26 14:15:00
10:35 AM,70.0,62.1,76,29.94,10.0,SSE,3.5,-,N/A,,Scattered Clouds,160,2013-07-26 14:35:00
10:55 AM,70.0,62.8,78,29.94,10.0,Calm,Calm,-,N/A,,Mostly Cloudy,0,2013-07-26 14:55:00
11:15 AM,70.9,62.4,75,29.94,10.0,SSW,5.8,-,N/A,,Mostly Cloudy,210,2013-07-26 15:15:00
11:35 AM,72.3,63.0,72,29.94,10.0,South,3.5,-,N/A,,Scattered Clouds,190,2013-07-26 15:35:00
11:55 AM,75.2,64.8,70,29.93,10.0,South,4.6,-,N/A,,Scattered Clouds,180,2013-07-26 15:55:00
12:15 PM,75.2,64.4,69,29.93,10.0,South,6.9,-,N/A,,Scattered Clouds,170,2013-07-26 16:15:00
12:35 PM,75.2,63.3,66,29.92,10.0,SSW,5.8,-,N/A,,Scattered Clouds,200,2013-07-26 16:35:00
12:55 PM,75.7,63.5,66,29.92,10.0,SW,5.8,-,N/A,,Scattered Clouds,220,2013-07-26 16:55:00
1:15 PM,77.0,64.6,65,29.91,10.0,SW,3.5,-,N/A,,Mostly Cloudy,220,2013-07-26 17:15:00
1:35 PM,75.2,63.7,67,29.90,10.0,Calm,Calm,-,N/A,Rain,Light Rain,0,2013-07-26 17:35:00
1:55 PM,75.2,63.9,68,29.89,10.0,Calm,Calm,-,N/A,,Overcast,0,2013-07-26 17:55:00
2:15 PM,76.6,64.9,67,29.88,10.0,South,4.6,-,N/A,,Overcast,190,2013-07-26 18:15:00
2:35 PM,75.2,64.6,69,29.87,10.0,WSW,3.5,-,N/A,,Overcast,240,2013-07-26 18:35:00
2:55 PM,72.9,66.4,80,29.87,4.0,SW,5.8,-,N/A,Rain,Light Rain,220,2013-07-26 18:55:00
3:15 PM,75.4,66.6,74,29.86,10.0,NNW,5.8,-,N/A,,Mostly Cloudy,330,2013-07-26 19:15:00
3:35 PM,75.2,65.1,71,29.86,10.0,SSW,3.5,-,N/A,,Mostly Cloudy,210,2013-07-26 19:35:00
3:55 PM,75.2,65.5,72,29.86,10.0,SSW,5.8,-,N/A,,Mostly Cloudy,210,2013-07-26 19:55:00
4:14 PM,74.5,65.7,74,29.87,10.0,SW,6.9,18.4,N/A,,Overcast,220,2013-07-26 20:14:00
4:35 PM,71.2,64.0,78,29.87,10.0,SSW,9.2,16.1,N/A,,Light Drizzle,200,2013-07-26 20:35:00
4:55 PM,70.0,61.9,75,29.87,10.0,SSW,5.8,-,N/A,,Overcast,200,2013-07-26 20:55:00
5:14 PM,70.0,62.8,78,29.86,10.0,SSW,5.8,-,N/A,Rain,Light Rain,200,2013-07-26 21:14:00
5:35 PM,70.0,63.7,80,29.86,10.0,SSW,10.4,19.6,N/A,Rain,Rain,200,2013-07-26 21:35:00
5:55 PM,70.0,65.5,86,29.87,10.0,SW,10.4,-,N/A,Rain,Rain,220,2013-07-26 21:55:00
6:14 PM,67.6,64.4,89,29.88,4.0,SSW,13.8,21.9,N/A,Rain,Heavy Rain,210,2013-07-26 22:14:00
6:35 PM,64.0,61.0,90,29.91,3.0,WSW,10.4,21.9,N/A,Rain,Heavy Rain,250,2013-07-26 22:35:00
6:55 PM,61.2,59.4,94,29.91,4.0,West,10.4,19.6,N/A,Rain,Rain,260,2013-07-26 22:55:00
7:15 PM,61.2,59.5,94,29.90,5.0,West,6.9,16.1,N/A,Rain,Rain,260,2013-07-26 23:15:00
7:35 PM,61.2,59.9,96,29.90,3.0,SW,6.9,-,N/A,Rain,Heavy Rain,220,2013-07-26 23:35:00
7:55 PM,61.3,60.1,96,29.89,5.0,South,4.6,-,N/A,Rain,Rain,190,2013-07-26 23:55:00
8:15 PM,61.2,59.9,96,29.89,5.0,SSE,5.8,-,N/A,Rain,Rain,160,2013-07-27 00:15:00
8:35 PM,60.1,59.0,96,29.89,7.0,Calm,Calm,-,N/A,Rain,Heavy Rain,0,2013-07-27 00:35:00
8:54 PM,60.1,59.0,96,29.88,7.0,SE,4.6,-,N/A,Rain,Light Rain,130,2013-07-27 00:54:00
9:15 PM,59.9,58.8,96,29.87,10.0,Calm,Calm,-,N/A,Rain,Light Rain,0,2013-07-27 01:15:00
9:35 PM,60.8,59.5,96,29.88,10.0,Calm,Calm,-,N/A,Rain,Light Rain,0,2013-07-27 01:35:00
9:54 PM,60.4,59.0,95,29.87,10.0,ESE,3.5,-,N/A,,Overcast,120,2013-07-27 01:54:00
10:15 PM,60.3,58.6,94,29.87,10.0,Calm,Calm,-,N/A,,Mostly Cloudy,0,2013-07-27 02:15:00
10:35 PM,60.6,58.8,94,29.86,10.0,Calm,Calm,-,N/A,,Scattered Clouds,0,2013-07-27 02:35:00
10:55 PM,61.2,59.2,93,29.86,10.0,SSW,3.5,-,N/A,,Scattered Clouds,210,2013-07-27 02:55:00
11:15 PM,61.2,59.5,94,29.85,10.0,Calm,Calm,-,N/A,,Overcast,0,2013-07-27 03:15:00
11:35 PM,61.0,59.4,94,29.86,10.0,Calm,Calm,-,N/A,,Mostly Cloudy,0,2013-07-27 03:35:00
11:55 PM,61.2,59.4,94,29.85,10.0,Calm,Calm,-,N/A,,Overcast,0,2013-07-27 03:55:00